Location: Croissy-Beaubourg
(48.8283°N, 2.6696°E)
Time: 01:31:17
(UTC+00:00)

USA 215 - Pass Details

Date: 28 May 2022
Orbit: 1099 x 1108 km, 123.0° (Epoch: 10 June)

Event Time Altitude Azimuth Distance (km) Brightness Sun altitude
Rises 00:35:37 0° 58° (ENE) 3,925 6.8 -18.9°
Reaches altitude 10° 00:38:07 10° 55° (NE) 2,967 6.2 -18.8°
Maximum altitude 00:44:35 65° 336° (NNW) 1,210 3.6 -18.6°
Drops below altitude 10° 00:51:02 10° 257° (WSW) 2,965 5.2 -18.3°
Enters shadow 00:53:05 - 255° (WSW) 3,747 5.8 -18.2°
